Detroit, MI

2:54 AM EDT on May 27, 2017 (GMT -0400)
Detroit City

Weather History for KDET - December, 2012

Change the Weather History Date:

Wednesday, December 26, 2012

  Actual Average Record
Temperature  
Mean Temperature 28 °F -  
Max Temperature 30 °F 28 °F 55 °F (2016)
Min Temperature 26 °F 19 °F -5 °F (1983)
Degree Days  
Heating Degree Days 37    
Moisture  
Dew Point 24 °F    
Average Humidity 87    
Maximum Humidity 100    
Minimum Humidity 69    
Precipitation  
Precipitation 0.24 in - - ()
Sea Level Pressure  
Sea Level Pressure 29.96 in    
Wind  
Wind Speed 13 mph (NNE)    
Max Wind Speed 20 mph    
Max Gust Speed 29 mph    
Visibility 4 miles    
Events Fog , Snow    
Averages and records for this station are not official NWS values.
T = Trace of Precipitation, MM = Missing Value Source: NWS Daily Summary

Daily Weather History Graph

Daily Weather History Graph

Search for Another Location

Airport or City:

Trip Planner

Search our weather history database for the weather conditions in past years. The results will help you decide how hot, cold, wet, or windy it might be!

Date:

Astronomy

Dec. 26, 2012 Rise Set
Actual Time 8:00 AM EST 5:05 PM EST
Civil Twilight 7:28 AM EST 5:37 PM EST
Nautical Twilight 6:52 AM EST 6:13 PM EST
Astronomical Twilight 6:18 AM EST 6:47 PM EST
Moon 3:58 PM EST (12/26) 6:22 AM EST (12/26)
Length of Visible Light 10h 09m
Length of Day
9h 05m
Waxing Gibbous, 97% of the Moon is Illuminated
Dec 26
Waxing Gibbous
Dec 28
Full
Jan 4
Last Quarter
Jan 11
New
Jan 18
First Quarter

Hourly Weather History & Observations

Time (EST) Temp. Windchill Dew Point Humidity Pressure Visibility Wind Dir Wind Speed Gust Speed Precip Events Conditions
12:42 AM 30.2 °F 21.3 °F 24.8 °F 80% 30.27 in 10.0 mi ENE 10.4 mph - N/A   Overcast
12:53 AM 30.9 °F 20.7 °F 24.1 °F 76% 30.28 in 10.0 mi East 13.8 mph 21.9 mph N/A   Overcast
1:53 AM 30.9 °F 21.7 °F 21.9 °F 69% 30.25 in 10.0 mi ENE 11.5 mph - N/A   Overcast
2:09 AM 30.2 °F 20.2 °F 21.2 °F 69% 30.22 in 10.0 mi NE 12.7 mph 21.9 mph N/A   Overcast
2:53 AM 30.9 °F 21.2 °F 21.9 °F 69% 30.25 in 10.0 mi NE 12.7 mph 23.0 mph N/A   Overcast
3:53 AM 30.9 °F 20.7 °F 21.9 °F 69% 30.20 in 10.0 mi ENE 13.8 mph 23.0 mph N/A   Overcast
4:10 AM 30.2 °F 19.8 °F 21.2 °F 69% 30.16 in 10.0 mi ENE 13.8 mph 24.2 mph N/A   Overcast
4:33 AM 30.2 °F 19.8 °F 21.2 °F 69% 30.14 in 10.0 mi NE 13.8 mph 25.3 mph N/A   Overcast
4:53 AM 30.0 °F 18.3 °F 21.0 °F 69% 30.16 in 10.0 mi NE 17.3 mph 25.3 mph N/A   Overcast
5:53 AM 30.0 °F 17.9 °F 21.0 °F 69% 30.14 in 10.0 mi NE 18.4 mph 24.2 mph N/A   Overcast
6:22 AM 30.2 °F 19.8 °F 21.2 °F 69% 30.10 in 10.0 mi NE 13.8 mph 24.2 mph N/A   Overcast
6:53 AM 30.0 °F 18.3 °F 21.9 °F 72% 30.12 in 10.0 mi NE 17.3 mph 23.0 mph N/A   Overcast
7:53 AM 30.0 °F 19.1 °F 23.0 °F 75% 30.10 in 10.0 mi NE 15.0 mph 25.3 mph N/A   Overcast
8:53 AM 30.0 °F 17.9 °F 21.9 °F 72% 30.09 in 10.0 mi NE 18.4 mph 27.6 mph N/A   Overcast
9:53 AM 30.0 °F 18.3 °F 23.0 °F 75% 30.04 in 10.0 mi NE 17.3 mph 27.6 mph N/A   Overcast
10:53 AM 30.0 °F 19.5 °F 24.1 °F 79% 30.00 in 10.0 mi NE 13.8 mph 26.5 mph N/A   Overcast
11:53 AM 30.0 °F 18.3 °F 25.0 °F 82% 29.96 in 10.0 mi ENE 17.3 mph 26.5 mph N/A   Overcast
12:11 PM 30.2 °F 18.1 °F 26.6 °F 86% 29.93 in 7.0 mi ENE 18.4 mph 25.3 mph N/A   Overcast
12:18 PM 30.2 °F 18.5 °F 26.6 °F 86% 29.93 in 1.8 mi NE 17.3 mph 25.3 mph 0.00 in Snow Light Snow
12:31 PM 28.4 °F 17.5 °F 26.6 °F 93% 29.93 in 3.0 mi NE 13.8 mph 23.0 mph 0.00 in Snow Light Snow
12:53 PM 28.9 °F 18.2 °F 27.0 °F 92% 29.94 in 2.5 mi NE 13.8 mph 23.0 mph 0.00 in Snow Light Snow
1:04 PM 28.4 °F 18.5 °F 26.6 °F 93% 29.91 in 1.2 mi NE 11.5 mph 23.0 mph 0.00 in Snow Light Snow
1:12 PM 28.4 °F 16.6 °F 26.6 °F 93% 29.90 in 0.8 mi NE 16.1 mph 28.8 mph 0.00 in Snow Light Snow
1:35 PM 28.4 °F 17.0 °F 26.6 °F 93% 29.88 in 1.2 mi NE 15.0 mph - 0.00 in Snow Light Snow
1:44 PM 28.4 °F 17.0 °F 26.6 °F 93% 29.88 in 0.8 mi NE 15.0 mph 23.0 mph 0.01 in Snow Light Snow
1:53 PM 28.0 °F 18.1 °F 27.0 °F 96% 29.91 in 0.5 mi NE 11.5 mph 20.7 mph 0.01 in Fog , Snow Snow
2:53 PM 27.0 °F 16.1 °F 25.0 °F 92% 29.89 in 0.5 mi NNE 12.7 mph 23.0 mph 0.04 in Fog , Snow Snow
3:23 PM 26.6 °F 15.2 °F 24.8 °F 93% 29.85 in 0.8 mi NNE 13.8 mph 27.6 mph 0.01 in Snow Light Snow
3:53 PM 26.1 °F 14.0 °F 24.1 °F 92% 29.88 in 0.8 mi NE 15.0 mph 25.3 mph 0.02 in Snow Light Snow
4:17 PM 26.6 °F 14.7 °F 24.8 °F 93% 29.85 in 0.2 mi NNE 15.0 mph 26.5 mph 0.01 in Fog , Snow Snow
4:39 PM 26.6 °F 13.1 °F 24.8 °F 93% 29.85 in 0.5 mi NNE 19.6 mph 23.0 mph 0.03 in Fog , Snow Snow
4:53 PM 26.1 °F 14.0 °F 24.1 °F 92% 29.87 in 0.5 mi NNE 15.0 mph 27.6 mph 0.04 in Fog , Snow Snow
5:03 PM 26.6 °F 13.4 °F 24.8 °F 93% 29.85 in 0.2 mi NNE 18.4 mph 25.3 mph 0.01 in Fog , Snow Heavy Snow
5:14 PM 26.6 °F 13.1 °F 23.0 °F 86% 29.85 in 0.5 mi NNE 19.6 mph 26.5 mph 0.01 in Fog , Snow Snow
5:53 PM 26.1 °F 13.6 °F 24.1 °F 92% 29.87 in 1.0 mi NNE 16.1 mph - 0.03 in Snow Light Snow
6:15 PM 26.6 °F 16.2 °F 24.8 °F 93% 29.85 in 1.0 mi NNE 11.5 mph - 0.01 in Snow Light Snow
6:28 PM 26.6 °F 14.7 °F 24.8 °F 93% 29.85 in 0.8 mi NNE 15.0 mph 20.7 mph 0.02 in Snow Light Snow
6:53 PM 26.1 °F 14.5 °F 24.1 °F 92% 29.87 in 0.8 mi NNE 13.8 mph - 0.04 in Snow Light Snow
7:02 PM 26.6 °F 15.7 °F 24.8 °F 93% 29.84 in 1.0 mi NNE 12.7 mph 21.9 mph 0.00 in Snow Light Snow
7:20 PM 26.6 °F 15.7 °F 24.8 °F 93% 29.85 in 2.0 mi NNE 12.7 mph - 0.01 in Snow Light Snow
7:31 PM 26.6 °F 16.2 °F 24.8 °F 93% 29.85 in 5.0 mi NNE 11.5 mph - 0.01 in Snow Light Snow
7:53 PM 26.1 °F 15.6 °F 24.1 °F 92% 29.87 in 3.0 mi North 11.5 mph - 0.01 in Snow Light Snow
8:02 PM 26.6 °F 16.2 °F 24.8 °F 93% 29.85 in 1.8 mi North 11.5 mph - 0.00 in Snow Light Snow
8:41 PM 26.6 °F 16.8 °F 24.8 °F 93% 29.85 in 3.0 mi North 10.4 mph - 0.02 in Snow Light Snow
8:53 PM 26.1 °F 17.6 °F 24.1 °F 92% 29.88 in 6.0 mi North 8.1 mph - 0.02 in Snow Light Snow
9:43 PM 26.6 °F 17.5 °F 24.8 °F 93% 29.85 in 2.0 mi North 9.2 mph - 0.00 in Snow Light Snow
9:53 PM 26.1 °F 19.4 °F 25.0 °F 96% 29.88 in 1.8 mi North 5.8 mph - 0.01 in Snow Light Snow
10:00 PM 26.6 °F 18.2 °F 24.8 °F 93% 29.85 in 1.2 mi North 8.1 mph - 0.00 in Snow Light Snow
10:16 PM 26.6 °F 17.5 °F 24.8 °F 93% 29.84 in 1.5 mi North 9.2 mph - 0.01 in Snow Light Snow
10:38 PM 26.6 °F 16.8 °F 26.6 °F 100% 29.84 in 1.5 mi North 10.4 mph - 0.02 in Snow Light Snow
10:53 PM 27.0 °F 17.3 °F 26.1 °F 96% 29.87 in 1.8 mi North 10.4 mph - 0.02 in Snow Light Snow
11:18 PM 26.6 °F 16.8 °F 26.6 °F 100% 29.84 in 1.5 mi North 10.4 mph - 0.00 in Snow Light Snow
11:32 PM 26.6 °F 18.2 °F 26.6 °F 100% 29.84 in 2.5 mi North 8.1 mph - 0.00 in Snow Light Snow
11:46 PM 26.6 °F 17.5 °F 24.8 °F 93% 29.85 in 4.0 mi North 9.2 mph - 0.00 in Snow Light Snow
11:53 PM 27.0 °F 17.3 °F 24.1 °F 89% 29.87 in 6.0 mi North 10.4 mph - 0.00 in Snow Light Snow